Location: Blandford
(50.8667°N, 2.1667°W)
Time: 05:43:35
(UTC+00:00)

Mayak - Pass Details

Date: 09 April 2020
Orbit: 581 x 601 km, 97.5° (Epoch: 29 May)

Event Time Altitude Azimuth Distance (km) Brightness Sun altitude
Rises 22:01:04 0° 18° (NNE) 2,825 ? -24.9°
Reaches altitude 10° 22:03:20 10° 26° (NNE) 1,917 ? -25.1°
Enters shadow 22:05:29 27° 45° (NE) 1,152 ? -25.3°
